STARLINK-1807, 46706

Orbit data source: Space-Track

STARLINK-1807, 46706 is a payload satellite owned by SpaceX/Seattle (US) in LEO that was launched on Sun, 18 Oct 2020 UTC via an FALCON 9 launch vehicle from the Air Force Eastern Test Range (AFETR). Payload-class satellites include a variety of spacecraft equipped with specific instruments for various scientific and technological missions. These include communications satellites like Starlink; space stations such as the ISS; scientific satellites like the Hubble; Earth observation satellites from companies like Planet Labs, Umbra, and HawkEye 360; GPS; miniature CubeSats for education and research; and military/defense satellites.

Loading next visibility...
Identifier
46706, 2020-073AN
Orbit
LEO
Country
Flag of USUS
Related business
Manufacturer
SpaceX/Seattle
Mission
Partially operational Commercial Communications
Bus & Motor
STARLINK, Unknown motor
Mass
260 kg wet, ~248 kg dry
Launch date (UTC)
2020-10-18 (5 years ago)
Launch vehicle
FALCON 9
Launch site
Air Force Eastern Test Range (AFETR)
Object type
Payload
Rocket body
Debris
Shape & HBR
Box + 1 Pan, 10.1 m
Radar Cross Section
13.562 m², Large (>1 m²)

Expand to show TLE details & history
Last TLE update: 23 hours ago

TLE from 23 hours ago
0 STARLINK-1807
1 46706U 20073AN  26034.23753772  .00017789  00000-0  81784-3 0  9999
2 46706  53.0451  26.7872 0005781  65.0277 295.1318 15.20433557292077
Epoch: 2026-02-03T05:42Z
TLE epoch observation values (Epoch: 2026-02-03T05:42:03.259Z)
Latitude
-0.00005°
Longitude
167.85224°
Altitude
503.728 km
Speed
7.615 km/s
True Right ascension
01h 47m 08s
True Declination
0° 00' 00"
Sunlit
Object was in daylight at epoch
Visualization orbit readout
Latitude
Unknown
Longitude
Unknown
Altitude
Unknown
Speed
Unknown
Apparent Right ascension
Unknown
Apparent Declination
Unknown
Sunlit
N/A
Visualization observer readout
Local Sidereal Time
06:41:24
Azimuth
Unknown
Elevation
Unknown
Doppler factor
Unknown
Orbital elements
Apogee altitude
508.785 km
Perigee altitude
500.827 km
Semi-major axis
6,882.943 km
Eccentricity
0.00058
Inclination
53.0451°
RAAN
26.7872°
Arg. of periapsis
65.0277°
True anomaly
295.07181°
Mean anomaly
295.1318°
Eccentric anomaly
295.10181°
Mean motion
3.80086 °/min
Orbital period
94.72 mins
BSTAR
0.00081784
Loading maneuver chart data...
Computing Atmospheric mass density...

Documentation

Showing up to 5 results
|